200 serials | updatemydriver version 9.0 build 5 registration key

Date Name Success Rate
2011-09-08 09:58:40 Acoustica Mixcraft v1.10 Build 15 Registration Info by MaBi 60%
2011-09-08 11:20:33 Just The Fax version 2.9z Build 9 0%
2009-10-22 23:46:29 Du Meter Version 3.07 Build 200 0%
2009-10-22 23:50:38 WinSCL Version 4.0 Build 149 0%
2009-10-22 23:50:52 Ytunnel Version 2.0 Build 352 0%
2011-09-08 10:45:13 DU Meter Version: 3.02 Build 76 65%
2011-09-08 10:56:10 FontExplorerL.M Version: 4.0.0 Build 23 0%
2011-09-08 11:06:13 HattrickPoli version 4 build 412 66%
2011-09-08 13:19:40 WinSCL Version 4.0 Build 149 0%
2009-10-22 23:27:13 Ad-aware Professional Version 6 Build 181 0%
2009-10-22 23:27:17 Alcohol Version 1.9.5 Build 2802 0%
2009-10-22 23:45:52 Clickteam InstallCreator Pro 2.0.0.24 (version 2.0 Build 24) 0%
2009-10-22 23:48:44 Macro Express Version 3.5d Build 1 3.5.4.1 0%
2009-10-22 23:49:11 O&O Defrag Version 8.0 Build 1398 0%
2009-10-22 23:49:20 PCDJ Red Version 5.3 Build 1012 90%
2009-10-22 23:49:55 SoftReef Lab CompuPIC Version 6.23 Build 13 0%
2009-10-22 23:49:56 Sony DVD Architect Version 1.0d (Build 230) 63%
2011-09-08 10:20:02 BitDefender Professional Plus Version: 9 Build 9.5 0%
2011-09-08 10:44:24 Doctor Aquarium Version: 1.0.4 Build 9 0%
2011-09-08 11:28:31 Magic.C.Plus.Plus Version: 3.5.Build.060210 0%
2011-09-08 11:41:25 Net Control 2 Client Version v2.80 build 80%
2011-09-08 12:27:09 Opera Version 8.0 Build 7561 0%
2011-09-08 12:43:36 RightClick Enhanced Version: 1.20 Build 739 0%
2011-09-08 12:49:47 SoftReef Lab CompuPIC version 6.23 build 13 0%
2012-12-12 04:36:32 Brasfoot 2011 - No Build Version 0%
2009-10-17 06:27:46 Magix Mp3 Maker 10 DeLuxe V6.10 Build 513 E Version 75%
2009-10-22 23:27:25 Audio Mid Recorder Version 3.65 Build 1326 0%
2009-10-22 23:27:28 AVG Internet Security 8.0 Build 93 FULL VERSION 51%
2009-10-22 23:48:45 Magic ISO Maker Version 5.5 (build 0265) 72%
2009-10-22 23:49:20 PC Cillin 2005 Version 12.00 Build 1244 0%
2009-10-22 23:49:23 Picasa Version 1.5.0 Build 4.15 Final Release 0%
2009-10-22 23:49:56 Sony Sound Forge 7.0 Version 7.0 (Build 214) 57%
2011-09-08 10:48:46 Edge Diagrammer Version: 4.16 build 1783 0%
2011-09-08 10:54:32 File.Security.Manager Version: 1.7.1.build.47 0%
2011-09-08 11:15:04 ImTOO.OGG.Converter Version: 2.1.57.build.0510 0%
2011-09-08 11:27:13 Longhorn Version: ALFA build 4015 0%
2011-09-08 12:58:40 Steganos Antispyware 2006 Version: 8.4.3 ( Build 395) 0%
2011-09-08 13:12:41 Visual CASE Version v1.0 build 120SP1 0%
2012-12-12 05:08:15 Camptasia Stdudio Version 7.0.0 (Build 1426) 0%
2012-12-12 05:10:15 Camtasia Studio Version 7.1.1(Build 1785) 0%
2009-10-17 06:27:46 Magix Photo Cleaning Lab V1.53 Build 4999 E Version 52%
2009-10-22 23:50:35 Windows Longhorn Version: ALFA Build 4015 0%
2009-10-22 23:50:37 Windows_XP Professional - SP2 Version 2002 Build 5.1.2600 0%
2011-09-08 10:31:36 Corel Print House 3.0 Build 278 Spanish Version 0%
2011-09-08 13:18:23 Windows Longhorn Version: ALFA build 4015 0%
2012-12-12 15:21:24 ImTOO MP4 Video Converter Version: 2.1.62 build 0412b 0%
2011-09-08 10:42:09 DAS Registration 1.5.2 80%
2011-09-08 10:42:09 DAS Registration For CW5 0%
2011-09-08 10:42:09 DAS Registration v1.5.2 0%
2011-09-08 12:52:22 TelePort Pro version 1.29 Build 1530 1.29 Build 1530 0%
2011-09-08 13:13:00 VMware Workstation 3.2 (for Linux) Released Version Build 2230 0%
2009-10-17 06:27:02 Lazarus Registration DLL V1.0 59%
2009-10-22 23:48:48 MemoriesonTV Registration 0%
2009-10-22 23:49:42 Registration Wizard 40%
2011-09-08 10:06:47 AnetHelpTool v4.02 Registration 52%
2011-09-08 10:22:13 ByeLines Registration 60%
2011-09-08 10:57:42 Ftgate Registration 63%
2011-09-08 11:15:16 Infodex v2.10 Registration 0%
2011-09-08 11:25:08 Lazarus Registration DLL v1.0 0%
2011-09-08 11:27:46 Mac Opener v3.0 Registration 57%
2011-09-08 11:32:59 mIRC v4.5+ Registration 60%
2011-09-08 11:32:59 mIRC v4.52 Registration 60%
2011-09-08 12:37:02 Quant v2.0 Registration 0%
2011-09-08 12:41:14 Registration Suite 1.0 60%
2011-09-08 12:41:14 Registration Suite v1.0 60%
2011-09-08 12:41:14 Registration Wizard Pro 5.01 46%
2011-09-08 12:41:14 Registration Wizard Pro v5.01 60%
2011-09-08 13:18:59 WinHacker 95 v2.02 Registration 57%
2012-12-13 05:12:00 Registration Key : 526EFEF086E09600449E667EA2DAE8E2E6D642BC 83%
2009-10-17 06:26:27 Knownsoft Turbo Searcher Standard Version V3.50 Build 061114 Keymaker 47%
2009-10-17 06:26:27 Knownsoft Turbo Searcher Standard Version V3.50 Build 070207 Keymaker 54%
2009-10-22 23:48:30 Knownsoft Turbo Searcher Standard Version V3.50 Build.061114 Retail 0%
2009-10-22 23:27:21 Ardamax Keylogger 2.9 Registration 56%
2009-10-22 23:48:49 Microsoft Registration Hacker - 39%
2009-10-22 23:49:57 SoudForge ALL (No Registration Requiered) 0%
2009-10-22 23:50:26 Valve's Registration Armor Key-Gen 60%
2011-09-08 10:21:42 Browserola v1.01 Temp. Registration 0%
2011-09-08 10:56:11 FontLook v3.1 Registration Code 62%
2011-09-08 11:31:51 Microsoft Registration Hacker 0%
2011-09-08 11:31:51 Microsoft Registration Hacker - 0%
2011-09-08 11:31:51 Microsoft Registration HackerMSREGHACK 0%
2011-09-08 11:32:07 Microstation v5.xx.xx & 95 FULL REGISTRATION 48%
2011-09-08 11:42:43 Nic O'Matic 1.6 Registration Code 50%
2011-09-08 11:42:43 Nic O'Matic v1.6 Registration Code 55%
2011-09-08 12:34:57 PolyTrans V1.2E Registration Activator CD-Key 62%
2011-09-08 12:34:57 PolyView v2.9b16 Registration 0%
2011-09-08 12:54:09 Time Registration (German) 1.10 0%
2011-09-08 12:59:30 Super Collapse Registration 100%
2011-09-08 13:23:15 Yipe! II for Windows Registration #154 0%
2012-12-13 08:49:53 Softwarenetz Time Registration v1.10 0%
2012-12-13 08:49:56 Softwarenetz Time Registration v1.14 0%
2012-12-13 15:34:10 Valve's Registration Armor Key-Gen 0%
2009-10-22 23:48:17 Internet Download Manager Registration 50%
2011-09-08 10:25:56 Cheyenne Bitware V4.0 Registration Number 60%
2011-09-08 11:31:51 Microsoft Registration Hacker MSREGHACK 80%
2011-09-08 11:31:51 Microsoft Visual Basic 5 registration cd key 72%
2011-09-08 12:54:14 TimeSlips 10.5 enterprise - with registration code! 0%
2012-12-12 08:07:32 Download avast 5.0.667 Antivirus registration 0%
2012-12-13 05:12:00 Registration Code For PDFZilla Giveaway 0%
2012-12-13 05:12:00 Registration key for x-3gp-video-converter-38540 54%
2012-12-13 13:12:40 Total Image Converter Registration Key 57%
2011-09-08 11:30:16 MediaBlaze 98 v1.01 Win95/NT User: delphic Registration 0%
2012-12-13 05:12:00 Registration code:-826510-16101-266644 71%
2009-10-22 23:49:02 Norton Internet Security 2005 Registration Guide 0%
2012-12-12 19:40:26 Microsoft Visual Basic 2008 Express Edition Registration key 20%
2009-10-22 23:27:28 AVG Anti-Virus Professional Edition 7.5 (full Version) Version 7.5.476 21-Jun-2007 100%
2012-12-12 19:30:48 Microsoft Office 2010 BETA Version (tested with german version) 10%
2009-10-22 23:48:37 LFP Manager 2004 French Version, Version Française 58%
2012-12-12 18:20:54 MAGIX Movie Edit 17 Plus Download Version Version 10.0.0.33 50%
2011-09-08 10:01:02 Advanced Call Recorder 1x. from 1.0 version to 2.0 version 56%
2009-10-22 23:49:56 Sony Sound Forge 8.0 Build Ver 53 Ver 8.0 Build 53 62%
2011-09-08 11:16:24 INTERNET DOWNLOAD MANAGER 4.03 Build 6 4.03 Build 6 63%
2011-09-08 12:50:17 sony sound forge 8.0 build ver 53 ver 8.0 build 53 67%
2011-09-08 13:20:07 WinZip v9.0 SR-1 Build 6224 - v9.x Build XXXX by SnD 62%
2009-10-22 23:47:53 Foto Station 3.5.1 Build 56 3.5.1 Build 56 0%
2011-09-08 12:50:20 Sound Forge 5.0e Build 248 5.0e Build 248 0%
2011-09-08 09:59:07 Acronis True Image Home 2009 12 Build 9709 12 Build 9709 80%
2011-09-08 10:53:33 F-Secure Anti-Virus Client Security 6.00 build 11251 6.00 build 11251 0%
2011-09-08 10:12:34 Autorun Virus Remover v2.3 Build.0512 v2.3 Build.0512 69%
2009-10-22 23:46:28 Dr. Tag (any Version) 60%
2009-10-22 23:46:30 DVD-TO-AVI Version 2.0 73%
2009-10-22 23:48:00 Get Right 5.2d Version 0%
2009-10-22 23:49:20 PC-Duo Version 3.72 79%
2009-10-22 23:50:26 Version Cue CS 1.0 0%
2009-10-22 23:50:26 Version Cue CS2 2.0 0%
2009-10-22 23:50:26 Version: 7.0.1.321 0%
2011-09-08 09:49:52 A.S.C. Version: 4.1 0%
2011-09-08 10:06:48 AnF Version: 5.3.2.5 0%
2011-09-08 10:41:53 d'peg! Version: 2.3 0%
2011-09-08 10:41:53 d'peg! Version: 3.01 0%
2011-09-08 10:41:53 d'peg! Version: 4.1.5 0%
2011-09-08 10:41:53 d'peg! Version: 4.10 0%
2011-09-08 10:41:53 d'peg! Version: 4.12 100%
2011-09-08 10:44:13 DLL Spy Version: 1.0 0%
2011-09-08 10:44:13 DLL Spy Version: 1.1 0%
2011-09-08 10:44:13 DLL Spy Version: 1.2 0%
2011-09-08 10:44:13 DLL Spy Version: 1.3 0%
2011-09-08 10:44:13 DLL Spy Version: 1.4 0%
2011-09-08 10:44:13 DLL Spy Version: 1.5 0%
2011-09-08 10:53:52 FAR Version: 4.1.649 0%
2011-09-08 11:03:16 GP Version 5.0.8.8 0%
2011-09-08 11:03:16 GP Version v5.0.8.8 0%
2011-09-08 13:11:37 Version Cue CS (1.0) 0%
2011-09-08 13:11:37 Version Cue CS 1.0 0%
2011-09-08 13:11:37 Version Cue CS v1.0 0%
2011-09-08 13:11:37 Version: v1.0 67%
2011-09-08 13:11:37 Version: v1.1 0%
2011-09-08 13:11:37 Version: v1.5 90%
2011-09-08 13:11:37 Version: v2.0 54%
2011-09-08 13:11:37 Version: v2.00 0%
2011-09-08 13:11:37 Version: v4.0 57%
2011-09-08 13:11:37 Version: v4.0.0.2 0%
2011-09-08 13:11:37 Version: v5.0 0%
2011-09-08 13:11:37 Version: v5.0b2 0%
2011-09-08 13:11:37 Version: v5.11 100%
2011-09-08 13:11:37 Version: v6.0 0%
2011-09-08 13:11:37 Version: v8.0 NT 0%
2011-09-08 13:13:25 Vue Pro Any Version 0%
2011-09-08 13:22:33 XG Pad Version 1.63 0%
2012-12-12 13:40:36 GTA IV PC Version 0%
2009-10-23 07:01:24 3DMark 99 Max Pro - Build 200 99 Max Pro Build 200 48%
2009-10-22 23:49:11 O&O UnErase V1.0 Build 254 V1.0 Build 254 0%
2011-09-08 09:46:04 3DMark 99 Max Pro - Build 200 99 Max Pro build 200 0%
2011-09-08 10:45:11 DTS Mail 32 v2.10 Build 33,Build 40 0%
2011-09-08 10:45:11 DTS Mail v2.10 Build 33, Build 40 0%
2011-09-08 12:26:14 O&O UnErase v1.0 Build 254 v1.0 Build 0%
2009-10-17 06:32:20 Smart Version V2.00 0%
2009-10-23 07:01:26 4U WMA MP3 Converter Version 6.2.6 0%
2009-10-23 07:01:26 4U WMA MP3 Converter(Version 5.6.0) 0%
2009-10-22 23:27:13 Ad-aware (all Version) 51%
2009-10-22 23:27:25 Asusdvd Version 6.0 0%
2009-10-22 23:27:26 AutoShutdown Pro Version 5.0 0%
2009-10-22 23:44:51 Bookworm New Version 0%
2009-10-22 23:44:51 Bookworm Old Version 0%
2009-10-22 23:44:51 Bug Doctor (Last Version) 0%
2009-10-22 23:45:49 CallRecorder Version 1.01 47%
2009-10-22 23:45:52 ClipMate Version 6.0.0.1 0%
2009-10-22 23:45:53 ColorImpact Version 2.4.0 0%
2009-10-22 23:46:25 DaVideo 3 Version 3 0%
2009-10-22 23:46:27 DietMP3 Version 04.03.00 75%
2009-10-22 23:46:28 Doom 3 US Version 0%
2009-10-22 23:46:29 DSL Speed Version 2.02/3.1 0%
2009-10-22 23:47:40 Edit Plus Version 2.11 And Above 0%
2009-10-22 23:47:41 Emu8086 Version 3.22 0%
2009-10-22 23:47:52 FlashFXP Version 3.02 0%
2009-10-22 23:47:52 FlashFXP Version 3.4.0 0%
2009-10-22 23:47:53 Forms To Go All Version - By HNG 65 0%
2009-10-22 23:48:00 Getright 6.1 Pro Version 0%
2009-10-22 23:48:00 Global War (for Any Version) 0%
2009-10-22 23:48:06 Hamachi 1.2 NEW And Last Version 0%
2009-10-22 23:48:08 Hollywood FX Version 4.6.2 (26) 0%
2009-10-22 23:48:08 Hollywood FX-version 4.6.10(37) 11%
2009-10-22 23:48:37 Leap FTP All Version 0%
2009-10-22 23:48:47 Medcalc Version 7.0.1.0 0%
2009-10-22 23:48:50 Mirc All Version 0%
2009-10-22 23:48:50 Mks Vir Universal Key ALL Version 72%
2009-10-22 23:48:51 Mp3 Cd Burner Version : 3.01 0%
2009-10-22 23:48:53 MusicMatch 10 Or Any Version 0%
2009-10-22 23:48:59 Nero 5.5.9.9 (Oem Version) 0%
2009-10-22 23:48:59 Nero Version 5.5 0%